Scott Municipal (SCX)

 

Airport Diagram
No Airport Diagram Available
Current Weather/Forecast (VFR Conditions)
METAR KSCX 071255Z AUTO 32008KT 280V340 10SM FEW013 09/06 A3008 RMK A01
TAF

Airport Information

All Charts
General
Chart Name View
TAKEOFF MINIMUMS

Approaches
Chart Name Download
RNAV (GPS) RWY 05
RNAV (GPS) RWY 23
VOR/DME-A


Airport Statistics
Departures Arrivals Local
All Collected Stats since June 2016: 8 5 0
2021 Stats: 2 1 0
May Stats: 0 0 0

Inbound Traffic (Arrivals) - 0

No inbound traffic.


Outbound Traffic (Departures) - 0

No outbound traffic.


Local Traffic (Pattern) - 0

No local traffic.